Weather History for Cairns Airport, Queensland

Change the Weather History Date:

Saturday, June 15, 2013

  Actual Average Record
Temperature  
Mean Temperature 73 °F -  
Max Temperature 79 °F 78 °F - ()
Min Temperature 66 °F 63 °F - ()
Cooling Degree Days 8    
Growing Degree Days 23 (Base 50)    
Moisture  
Dew Point 59 °F    
Average Humidity 62    
Maximum Humidity 94    
Minimum Humidity 31    
Precipitation  
Precipitation 0.00 in 0.05 in - ()
Sea Level Pressure  
Sea Level Pressure 29.90 in    
Wind  
Wind Speed 10 mph ()    
Max Wind Speed 18 mph    
Max Gust Speed -    
Visibility 6.2 miles    
Events      
T = Trace of Precipitation, MM = Missing Value Source: Averaged Metar Reports

Daily Weather History Graph

Daily Weather History Graph

Search for Another Location

Airport:

Trip Planner

Search our weather history database for the weather conditions in past years. The results will help you decide how hot, cold, wet, or windy it might be!

Date:

Astronomy

Jun. 15, 2013 Rise Set
Actual Time 6:43 AM EST 5:51 PM EST
Civil Twilight 6:20 AM EST 6:14 PM EST
Nautical Twilight 5:53 AM EST 6:41 PM EST
Astronomical Twilight 5:26 AM EST 7:08 PM EST
Moon 11:08 AM EST (6/15) 11:18 PM EST (6/15)
Length of Visible Light 11h 54m
Length of Day
11h 07m
Waxing Crescent, 34% of the Moon is Illuminated
Jun 15
Waxing Crescent
Jun 17
First Quarter
Jun 23
Full
Jun 30
Last Quarter
Jul 8
New

Hourly Weather History & Observations

Time (EST) Temp. Dew Point Humidity Pressure Visibility Wind Dir Wind Speed Gust Speed Precip Events Conditions
12:00 AM 72 °F 66 °F 77% 29.87 in - South 6.9 mph - -  
12:00 AM 71.6 °F 66.2 °F 83% 29.86 in - South 6.9 mph - N/A   Clear
12:30 AM 71.6 °F 66.2 °F 83% 29.86 in - SSE 8.1 mph - N/A   Clear
1:00 AM 72 °F 66 °F 75% 29.87 in - South 8.1 mph - -  
1:00 AM 71.6 °F 66.2 °F 83% 29.86 in - South 8.1 mph - N/A   Clear
1:30 AM 71.6 °F 66.2 °F 83% 29.86 in - SSE 6.9 mph - N/A   Clear
2:00 AM 69.8 °F 66.2 °F 88% 29.86 in - SE 8.1 mph - N/A   Clear
2:30 AM 69.8 °F 66.2 °F 88% 29.83 in - SE 11.5 mph - N/A   Clear
3:00 AM 69 °F 66 °F 89% 29.85 in - SE 10.4 mph - -  
3:00 AM 69.8 °F 66.2 °F 88% 29.83 in 6.2 mi SE 10.4 mph - N/A   Unknown
3:30 AM 68.0 °F 66.2 °F 94% 29.83 in - SE 10.4 mph - N/A   Clear
4:00 AM 69 °F 66 °F 88% 29.85 in - ESE 9.2 mph - -  
4:00 AM 68.0 °F 66.2 °F 94% 29.83 in - ESE 9.2 mph - N/A   Clear
4:30 AM 68.0 °F 66.2 °F 94% 29.83 in - ESE 10.4 mph - N/A   Clear
5:00 AM 68.0 °F 66.2 °F 94% 29.86 in - SSE 11.5 mph - N/A   Clear
5:30 AM 69.8 °F 62.6 °F 78% 29.86 in - SSE 8.1 mph - N/A   Clear
6:00 AM 71.6 °F 62.6 °F 73% 29.89 in 6.2 mi South 9.2 mph - N/A   Partly Cloudy
6:30 AM 71.6 °F 60.8 °F 69% 29.89 in 6.2 mi South 10.4 mph - N/A   Partly Cloudy
7:00 AM 71 °F 58 °F 54% 29.92 in - South 11.5 mph - -  
7:00 AM 71.6 °F 57.2 °F 60% 29.89 in 6.2 mi South 11.5 mph - N/A   Partly Cloudy
7:30 AM 71.6 °F 59.0 °F 64% 29.92 in 6.2 mi South 13.8 mph - N/A   Partly Cloudy
8:00 AM 71.6 °F 60.8 °F 69% 29.92 in 6.2 mi South 10.4 mph - N/A   Partly Cloudy
8:30 AM 73.4 °F 60.8 °F 65% 29.92 in 6.2 mi South 12.7 mph - N/A   Partly Cloudy
9:00 AM 74 °F 62 °F 57% 29.95 in 25 mi SSE 15.0 mph - -   Partly Cloudy
9:00 AM 75.2 °F 62.6 °F 65% 29.95 in 6.2 mi SSE 15.0 mph - N/A   Partly Cloudy
9:30 AM 75.2 °F 59.0 °F 57% 29.95 in 6.2 mi SSE 13.8 mph - N/A   Partly Cloudy
10:00 AM 77 °F 56 °F 37% 29.96 in - SSE 15.0 mph - -  
10:00 AM 77.0 °F 55.4 °F 47% 29.95 in 6.2 mi SSE 15.0 mph - N/A   Partly Cloudy
10:30 AM 77.0 °F 55.4 °F 47% 29.95 in 6.2 mi ESE 13.8 mph - N/A   Partly Cloudy
11:00 AM 78.8 °F 55.4 °F 44% 29.95 in 6.2 mi SE 13.8 mph - N/A   Partly Cloudy
11:30 AM 78.8 °F 57.2 °F 47% 29.92 in - SE 12.7 mph - N/A   Clear
12:00 PM 79 °F 56 °F 35% 29.92 in 25 mi SE 12.7 mph - -   Partly Cloudy
12:00 PM 78.8 °F 57.2 °F 47% 29.92 in - SE 12.7 mph - N/A   Clear
12:30 PM 78.8 °F 55.4 °F 44% 29.89 in - South 9.2 mph - N/A   Clear
1:00 PM 79 °F 55 °F 33% 29.90 in - SE 13.8 mph - -  
1:00 PM 78.8 °F 55.4 °F 44% 29.89 in - SE 13.8 mph - N/A   Clear
1:30 PM 78.8 °F 55.4 °F 44% 29.89 in - SE 18.4 mph - N/A   Clear
2:00 PM 78.8 °F 53.6 °F 42% 29.86 in - SE 17.3 mph - N/A   Clear
2:30 PM 78.8 °F 53.6 °F 42% 29.86 in - SE 16.1 mph - N/A   Clear
3:00 PM 78 °F 53 °F 31% 29.86 in 25 mi SE 15.0 mph - -   Partly Cloudy
3:00 PM 78.8 °F 53.6 °F 42% 29.86 in - SE 15.0 mph - N/A   Clear
3:30 PM 78.8 °F 53.6 °F 42% 29.86 in - SE 13.8 mph - N/A   Clear
4:00 PM 78 °F 55 °F 35% 29.87 in - SE 12.7 mph - -  
4:00 PM 77.0 °F 55.4 °F 47% 29.86 in 6.2 mi SE 12.7 mph - N/A   Mostly Cloudy
4:30 PM 77.0 °F 57.2 °F 50% 29.86 in 6.2 mi SE 11.5 mph - N/A   Mostly Cloudy
5:00 PM 73.4 °F 57.2 °F 57% 29.86 in 6.2 mi SE 11.5 mph - N/A   Mostly Cloudy
5:30 PM 71.6 °F 57.2 °F 60% 29.89 in 6.2 mi SSE 6.9 mph - N/A   Mostly Cloudy
6:00 PM 70 °F 58 °F 57% 29.91 in - South 6.9 mph - -  
6:00 PM 69.8 °F 57.2 °F 64% 29.89 in 6.2 mi South 6.9 mph - N/A   Mostly Cloudy
6:30 PM 69.8 °F 57.2 °F 64% 29.92 in 6.2 mi South 8.1 mph - N/A   Mostly Cloudy
7:00 PM 70 °F 57 °F 55% 29.93 in - South 11.5 mph - -  
7:00 PM 69.8 °F 57.2 °F 64% 29.92 in 6.2 mi South 11.5 mph - N/A   Mostly Cloudy
7:30 PM 69.8 °F 57.2 °F 64% 29.92 in - South 11.5 mph - N/A   Clear
8:00 PM 69.8 °F 57.2 °F 64% 29.92 in - South 10.4 mph - N/A   Clear
8:30 PM 69.8 °F 57.2 °F 64% 29.95 in - South 10.4 mph - N/A   Clear
9:00 PM 69 °F 57 °F 56% 29.96 in - South 10.4 mph - -  
9:00 PM 69.8 °F 57.2 °F 64% 29.95 in - South 10.4 mph - N/A   Clear
9:30 PM 69.8 °F 55.4 °F 60% 29.95 in - South 9.2 mph - N/A   Clear
10:00 PM 69 °F 56 °F 55% 29.97 in - South 9.2 mph - -  
10:00 PM 68.0 °F 57.2 °F 68% 29.95 in 6.2 mi South 9.2 mph - N/A   Unknown
10:30 PM 69.8 °F 57.2 °F 64% 29.95 in - South 9.2 mph - N/A   Clear
11:00 PM 69.8 °F 57.2 °F 64% 29.95 in - South 8.1 mph - N/A   Clear
11:30 PM 66.2 °F 59.0 °F 78% 29.95 in 6.2 mi ESE 9.2 mph - N/A   Unknown